| time (UTC) | temp F | wind direction | speed MPH | gust MPH | rain 1hr in | rain 24hr in | rain mn in | humidity % | barometer mb |
| 20260506014016 | 42 | 0 | 0.0 | 0.0 | 0.00 | 0.00 | 0.00 | 82 | 1017.5 |
| 20260506012516 | 42 | 0 | 0.0 | 0.0 | 0.00 | 0.00 | 0.00 | 82 | 1017.5 |
| 20260506011017 | 42 | 0 | 0.0 | 0.0 | 0.00 | 0.00 | 0.00 | 82 | 1017.3 |
| 20260506005516 | 42 | 0 | 0.0 | 0.0 | 0.00 | 0.00 | 0.00 | 81 | 1017.7 |
| 20260506004016 | 42 | 0 | 0.0 | 0.0 | 0.00 | 0.00 | 0.00 | 82 | 1017.6 |
| 20260506002517 | 43 | 0 | 0.0 | 0.0 | 0.00 | 0.00 | 0.00 | 81 | 1017.6 |
| 20260506001016 | 43 | 0 | 0.0 | 0.0 | 0.00 | 0.00 | 0.00 | 81 | 1017.6 |
| 20260505235517 | 43 | 118 | 0.0 | 1.0 | 0.00 | 0.00 | 0.00 | 82 | 1017.7 |
| 20260505234017 | 43 | 0 | 0.0 | 0.0 | 0.00 | 0.00 | 0.00 | 81 | 1017.6 |
| 20260505232516 | 43 | 0 | 0.0 | 0.0 | 0.00 | 0.00 | 0.00 | 81 | 1017.9 |
| 20260505231016 | 43 | 114 | 1.0 | 2.0 | 0.00 | 0.00 | 0.00 | 80 | 1017.8 |
| 20260505225516 | 43 | 96 | 1.0 | 1.0 | 0.00 | 0.00 | 0.00 | 81 | 1017.9 |
| 20260505224016 | 44 | 83 | 0.0 | 1.0 | 0.00 | 0.00 | 0.00 | 80 | 1018.0 |
| 20260505222516 | 44 | 106 | 1.0 | 2.0 | 0.00 | 0.00 | 0.00 | 81 | 1018.1 |
| 20260505221016 | 44 | 110 | 1.0 | 2.0 | 0.00 | 0.00 | 0.00 | 81 | 1017.7 |
| 20260505215516 | 44 | 128 | 0.0 | 1.0 | 0.00 | 0.00 | 0.00 | 80 | 1018.2 |
| 20260505214016 | 44 | 111 | 0.0 | 1.0 | 0.00 | 0.00 | 0.00 | 79 | 1017.8 |
| 20260505212516 | 45 | 83 | 2.0 | 2.0 | 0.00 | 0.00 | 0.00 | 79 | 1017.9 |
| 20260505211016 | 45 | 82 | 1.0 | 2.0 | 0.00 | 0.00 | 0.00 | 79 | 1017.9 |
| 20260505205516 | 45 | 112 | 0.0 | 1.0 | 0.00 | 0.00 | 0.00 | 79 | 1017.6 |
| 20260505204016 | 45 | 72 | 1.0 | 2.0 | 0.00 | 0.00 | 0.00 | 78 | 1017.7 |
| 20260505202516 | 45 | 72 | 1.0 | 2.0 | 0.00 | 0.00 | 0.00 | 78 | 1017.7 |
| 20260505201016 | 46 | 0 | 0.0 | 0.0 | 0.00 | 0.00 | 0.00 | 80 | 1017.4 |
| 20260505195516 | 46 | 74 | 2.0 | 3.0 | 0.00 | 0.00 | 0.00 | 79 | 1017.2 |
| 20260505194016 | 46 | 100 | 2.0 | 3.0 | 0.00 | 0.00 | 0.00 | 79 | 1017.2 |
| 20260505192516 | 46 | 88 | 2.0 | 3.0 | 0.00 | 0.00 | 0.00 | 78 | 1017.3 |
| 20260505191016 | 47 | 106 | 1.0 | 1.0 | 0.00 | 0.00 | 0.00 | 80 | 1017.1 |
| 20260505185516 | 47 | 86 | 2.0 | 3.0 | 0.00 | 0.00 | 0.00 | 79 | 1016.9 |
| 20260505184016 | 47 | 75 | 2.0 | 2.0 | 0.00 | 0.00 | 0.00 | 80 | 1016.9 |
| 20260505182516 | 47 | 69 | 4.0 | 8.0 | 0.00 | 0.00 | 0.00 | 79 | 1016.8 |
| 20260505181016 | 48 | 41 | 3.0 | 4.0 | 0.00 | 0.00 | 0.00 | 76 | 1016.4 |
| 20260505175516 | 48 | 39 | 3.0 | 3.0 | 0.00 | 0.00 | 0.00 | 76 | 1016.6 |
| 20260505174016 | 49 | 17 | 2.0 | 3.0 | 0.00 | 0.00 | 0.00 | 77 | 1016.5 |
| 20260505172516 | 51 | 126 | 2.0 | 3.0 | 0.00 | 0.00 | 0.00 | 77 | 1016.4 |
| 20260505171016 | 51 | 126 | 2.0 | 3.0 | 0.00 | 0.00 | 0.00 | 77 | 1016.4 |
| 20260505165516 | 51 | 126 | 2.0 | 3.0 | 0.00 | 0.00 | 0.00 | 77 | 1016.4 |
| 20260505164016 | 51 | 126 | 2.0 | 3.0 | 0.00 | 0.00 | 0.00 | 77 | 1016.4 |
| 20260505162516 | 51 | 126 | 2.0 | 3.0 | 0.00 | 0.00 | 0.00 | 77 | 1016.4 |
| 20260505161016 | 51 | 126 | 2.0 | 3.0 | 0.00 | 0.00 | 0.00 | 77 | 1016.4 |
| 20260505152516 | 51 | 81 | 2.0 | 4.0 | 0.00 | 0.00 | 0.00 | 76 | 1016.3 |
| 20260505151016 | 54 | 95 | 1.0 | 2.0 | 0.00 | 0.00 | 0.00 | 66 | 1015.9 |
| 20260505124016 | 52 | 349 | 6.0 | 7.0 | 0.00 | 0.00 | 0.00 | 66 | 1016.0 |
| 20260505122516 | 52 | 360 | 5.0 | 8.0 | 0.00 | 0.00 | 0.00 | 67 | 1016.0 |
| 20260505121016 | 52 | 355 | 4.0 | 4.0 | 0.00 | 0.00 | 0.00 | 68 | 1016.1 |
| 20260505115516 | 51 | 357 | 5.0 | 7.0 | 0.00 | 0.00 | 0.00 | 69 | 1016.0 |
| 20260505114016 | 52 | 79 | 3.0 | 6.0 | 0.00 | 0.00 | 0.00 | 67 | 1016.3 |
| 20260505112516 | 52 | 335 | 4.0 | 6.0 | 0.00 | 0.00 | 0.00 | 66 | 1016.0 |
| 20260505111016 | 52 | 332 | 3.0 | 4.0 | 0.00 | 0.00 | 0.00 | 66 | 1016.2 |
| 20260505101016 | 51 | 296 | 4.0 | 4.0 | 0.00 | 0.00 | 0.00 | 65 | 1016.1 |
| 20260505095516 | 51 | 342 | 7.0 | 8.0 | 0.00 | 0.00 | 0.00 | 65 | 1016.0 |
| 20260505094016 | 51 | 36 | 4.0 | 6.0 | 0.00 | 0.00 | 0.00 | 65 | 1016.3 |
| 20260505092516 | 50 | 45 | 3.0 | 6.0 | 0.00 | 0.00 | 0.00 | 66 | 1016.2 |
| 20260505091016 | 50 | 345 | 6.0 | 8.0 | 0.00 | 0.00 | 0.00 | 68 | 1016.3 |
| 20260505085516 | 50 | 344 | 5.0 | 8.0 | 0.00 | 0.00 | 0.00 | 71 | 1016.4 |
| 20260505084016 | 51 | 353 | 5.0 | 7.0 | 0.00 | 0.00 | 0.00 | 68 | 1016.4 |
| 20260505082516 | 51 | 19 | 6.0 | 7.0 | 0.00 | 0.00 | 0.00 | 66 | 1016.2 |
| 20260505081016 | 51 | 347 | 6.0 | 9.0 | 0.00 | 0.00 | 0.00 | 68 | 1016.4 |
| 20260505075516 | 50 | 345 | 6.0 | 10.0 | 0.00 | 0.00 | 0.00 | 74 | 1016.2 |
| 20260505074016 | 48 | 355 | 6.0 | 8.0 | 0.00 | 0.00 | 0.00 | 77 | 1016.3 |
| 20260505072516 | 48 | 355 | 7.0 | 8.0 | 0.00 | 0.00 | 0.00 | 78 | 1016.3 |
| 20260505071016 | 47 | 327 | 6.0 | 8.0 | 0.00 | 0.00 | 0.00 | 80 | 1016.1 |
| 20260505065516 | 46 | 8 | 4.0 | 6.0 | 0.00 | 0.00 | 0.00 | 81 | 1016.6 |
| 20260505064016 | 46 | 36 | 4.0 | 6.0 | 0.00 | 0.00 | 0.00 | 81 | 1016.5 |
| 20260505062516 | 45 | 287 | 3.0 | 6.0 | 0.00 | 0.00 | 0.00 | 85 | 1016.4 |
| 20260505061016 | 44 | 234 | 3.0 | 4.0 | 0.00 | 0.00 | 0.00 | 86 | 1016.7 |
| 20260505055516 | 43 | 289 | 3.0 | 6.0 | 0.00 | 0.00 | 0.00 | 88 | 1016.4 |
| 20260505054016 | 43 | 289 | 3.0 | 6.0 | 0.00 | 0.00 | 0.00 | 88 | 1016.4 |
| 20260505052516 | 43 | 260 | 4.0 | 6.0 | 0.00 | 0.00 | 0.00 | 88 | 1016.3 |
| 20260505051016 | 43 | 254 | 2.0 | 4.0 | 0.00 | 0.00 | 0.00 | 88 | 1016.3 |
| 20260505041016 | 42 | 223 | 2.0 | 3.0 | 0.00 | 0.00 | 0.00 | 90 | 1016.0 |
| 20260505035516 | 43 | 265 | 2.0 | 3.0 | 0.00 | 0.00 | 0.00 | 90 | 1016.0 |
| 20260505034016 | 43 | 230 | 2.0 | 2.0 | 0.00 | 0.00 | 0.00 | 89 | 1015.9 |
| 20260505032516 | 43 | 175 | 0.0 | 1.0 | 0.00 | 0.00 | 0.00 | 89 | 1016.0 |
| 20260505031016 | 43 | 241 | 2.0 | 3.0 | 0.00 | 0.00 | 0.00 | 89 | 1016.1 |
| 20260505025516 | 42 | 0 | 0.0 | 0.0 | 0.00 | 0.00 | 0.00 | 88 | 1016.5 |
| 20260505024016 | 42 | 0 | 0.0 | 0.0 | 0.00 | 0.00 | 0.00 | 88 | 1016.3 |
| 20260505022516 | 43 | 0 | 0.0 | 0.0 | 0.00 | 0.00 | 0.00 | 87 | 1016.2 |
| 20260505021016 | 43 | 201 | 1.0 | 2.0 | 0.00 | 0.00 | 0.00 | 85 | 1016.4 |
| 20260505015516 | 44 | 235 | 1.0 | 2.0 | 0.00 | 0.00 | 0.00 | 84 | 1016.4 |